Volver al catálogo

SL-14 R/B

ActivoPO
NORAD 20827·ROCKET BODY·🇷🇺 Russia

Lanzado Sep 28, 1990 desde Plesetsk Cosmodrome

Loading…

Próximos Pases (próximas 24 horas)

TLE

ActualizadoSource: Space-Track

Época: Sep 14, 2026, 09:15 UTC

1 20827U 90086B   26257.38609263  .00000047  00000-0  26735-4 0  9999
2 20827  82.5286 131.3469 0104716  83.2794 278.0271 13.84653738816641

Sigue SL-14 R/B en tiempo real con AllMySat

Download on the App Store